Tacoma Narrows, WA
on Saturday, January 19, 2013

Saturday
Previous Day Next Day
Daily Summary
 ActualAverageRecord
Temperature
Mean Temperature °F °F  
Max Temperature 39°F 45°F 62°F (2005)
Min Temperature 33°F 37°F 28°F (2009)
Degree Days
Heating Degree Days 29    
Moisture
Dew Point 33°F   
Average Humidity 91    
Maximum Humidity 100    
Minimum Humidity 80    
Precipitation
Precipitation 0.00 in in in ()
Wind
Wind Speed 3 mph   
Max Wind Speed 7 mph   
Max Gust Speed mph   
Visibility 3 miles   
Events Fog   
Averages and records for this station are not official NWS values.
Key: T is trace of precipitation, MM is missing value
Source: NWS Daily Summary
Seasonal Weather Averages
Time(PST)TemperatureDew PointHumidity Pressure Visibility Wind DirectionWind SpeedGust SpeedPrecipitationEvents Conditions
12:16 AM 33.8°F 32.0°F 93% 30.34 in 2.0 miles NNE 4.6 mph - N/A   Overcast
12:53 AM 35.1°F 33.1°F 92% 30.35 in 1.8 miles NNE 4.6 mph - N/A   Overcast
1:53 AM 34.0°F 32.0°F 92% 30.35 in 0.8 miles NNE 3.5 mph - N/A   Mist
2:53 AM 34.0°F 33.1°F 96% 30.36 in 0.5 miles NNE 3.5 mph - N/A Fog Fog
3:53 AM 34.0°F 33.1°F 96% 30.36 in 0.8 miles NNE 3.5 mph - N/A   Mist
4:05 AM 33.8°F 33.8°F 100% 30.34 in 1.2 miles NE 3.5 mph - N/A   Overcast
4:53 AM 34.0°F 33.1°F 96% 30.36 in 0.8 miles NNE 3.5 mph - N/A   Mist
5:00 AM 33.8°F 33.8°F 100% 30.34 in 1.5 miles Variable 3.5 mph - N/A   Overcast
5:27 AM 33.8°F 33.8°F 100% 30.34 in 3.0 miles North 4.6 mph - N/A   Overcast
5:40 AM 33.8°F 32.0°F 93% 30.35 in 1.8 miles NE 3.5 mph - N/A   Overcast
5:53 AM 34.0°F 33.1°F 96% 30.36 in 1.5 miles NNE 3.5 mph - N/A   Overcast
6:11 AM 33.8°F 32.0°F 93% 30.34 in 3.0 miles Calm Calm - N/A   Overcast
6:53 AM 35.1°F 33.1°F 92% 30.36 in 4.0 miles Calm Calm - N/A   Overcast
7:24 AM 35.6°F 33.8°F 93% 30.34 in 2.5 miles NE 4.6 mph - N/A   Overcast
7:53 AM 35.1°F 33.1°F 92% 30.36 in 1.0 miles Calm Calm - N/A   Overcast
8:24 AM 35.6°F 33.8°F 93% 30.36 in 0.5 miles Variable 3.5 mph - N/A Fog Fog
8:53 AM 35.1°F 33.1°F 92% 30.38 in 0.2 miles Calm Calm - N/A Fog Fog
9:44 AM 35.6°F 33.8°F 93% 30.38 in 1.0 miles Variable 3.5 mph - N/A   Overcast
9:53 AM 35.1°F 33.1°F 92% 30.39 in 1.0 miles NNE 3.5 mph - N/A   Overcast
10:53 AM 35.1°F 33.1°F 92% 30.39 in 1.0 miles Calm Calm - N/A   Overcast
11:53 AM 36.0°F 33.1°F 89% 30.37 in 1.0 miles Calm Calm - N/A   Overcast
12:53 PM 37.0°F 33.1°F 86% 30.36 in 2.0 miles NNW 4.6 mph - N/A   Overcast
1:53 PM 37.0°F 33.1°F 86% 30.35 in 3.0 miles Variable 3.5 mph - N/A   Overcast
2:53 PM 37.0°F 33.1°F 86% 30.34 in 3.0 miles NNE 3.5 mph - N/A   Overcast
3:53 PM 37.0°F 33.1°F 86% 30.35 in 10.0 miles Variable 3.5 mph - N/A   Overcast
3:59 PM 37.4°F 33.8°F 87% 30.34 in 10.0 miles Calm Calm - N/A   Overcast
4:00 PM 39.2°F 33.8°F 81% 30.34 in 3.0 miles Calm Calm - N/A   Haze
4:53 PM 38.8°F 33.1°F 80% 30.35 in 3.0 miles NNE 6.9 mph - N/A   Haze
5:53 PM 36.0°F 33.1°F 89% 30.36 in 3.0 miles Calm Calm - N/A   Overcast
6:53 PM 36.0°F 33.1°F 89% 30.36 in 9.0 miles NE 3.5 mph - N/A   Overcast
7:53 PM 36.0°F 33.1°F 89% 30.37 in 8.0 miles NNE 3.5 mph - N/A   Overcast
8:53 PM 35.6°F 32.0°F 87% 30.37 in 7.0 miles North 4.6 mph - N/A   Overcast
9:08 PM 35.6°F 32.0°F 87% 30.37 in 7.0 miles North 4.6 mph - N/A   Overcast
9:53 PM 35.1°F 32.0°F 89% 30.39 in 5.0 miles Variable 3.5 mph - N/A   Overcast
10:53 PM 35.1°F 33.1°F 92% 30.38 in 2.5 miles NNE 3.5 mph - N/A   Overcast
11:10 PM 35.6°F 33.8°F 93% 30.37 in 3.0 miles NE 3.5 mph - N/A   Overcast
11:18 PM 35.6°F 33.8°F 93% 30.37 in 2.5 miles Calm Calm - N/A   Overcast
11:48 PM 35.6°F 33.8°F 93% 30.37 in 1.0 miles Calm Calm - N/A   Mist
11:53 PM 35.1°F 33.1°F 92% 30.38 in 0.8 miles Calm Calm - N/A   Mist
Moon Phase
Jan. 19 Jan. 26 Feb. 03 Feb. 10 Feb. 17
Sunrise:07:49 AM (PST) Moon Rise:11:27 AM (PST)1/19
Sunset:04:53 PM (PST) Moon Set:01:23 AM (PST)1/19

Copyright © 2014 The Weather Underground, Inc.